Change the Weather History Date:

Wednesday, November 30, 2011

  Actual Average Record
Temperature  
Mean Temperature 48 °F -  
Max Temperature 55 °F 45 °F 55 °F (2001)
Min Temperature 42 °F 39 °F 26 °F (2005)
Degree Days  
Heating Degree Days 16    
Moisture  
Dew Point 45 °F    
Average Humidity 80    
Maximum Humidity 93    
Minimum Humidity 64    
Precipitation  
Precipitation 0.02 in - - ()
Sea Level Pressure  
Sea Level Pressure 30.16 in    
Wind  
Wind Speed 11 mph ()    
Max Wind Speed 31 mph    
Max Gust Speed -    
Visibility 6.2 miles    
Events Rain    
Averages and records for this station are not official NWS values.
T = Trace of Precipitation, MM = Missing Value Source: Averaged Metar Reports

Daily Weather History Graph

Daily Weather History Graph

Search for Another Location

Airport or City:

Trip Planner

Search our weather history database for the weather conditions in past years. The results will help you decide how hot, cold, wet, or windy it might be!

Date:

Astronomy

Nov. 30, 2011 Rise Set
Actual Time 7:39 AM GMT 3:59 PM GMT
Civil Twilight 7:01 AM GMT 4:37 PM GMT
Nautical Twilight 6:19 AM GMT 5:19 PM GMT
Astronomical Twilight 5:40 AM GMT 5:58 PM GMT
Moon 11:32 AM GMT (11/30) 10:01 PM GMT (11/30)
Length of Visible Light 9h 36m
Length of Day
8h 20m
Waxing Crescent, 31% of the Moon is Illuminated
Nov 30
Waxing Crescent
Dec 2
First Quarter
Dec 10
Full
Dec 18
Last Quarter
Dec 24
New

Hourly Weather History & Observations

Time (GMT) Temp. Dew Point Humidity Pressure Visibility Wind Dir Wind Speed Gust Speed Precip Events Conditions
2:50 AM 44 °F 38 °F 74% 30.15 in - West 3.5 mph - -  
5:50 AM 42 °F 39 °F 84% 30.19 in - WNW 1.2 mph - -  
7:50 AM 42.8 °F 41.0 °F 93% 30.21 in 6.2 mi Calm Calm - N/A   Partly Cloudy
8:20 AM 48.2 °F 42.8 °F 82% 30.21 in 6.2 mi WSW 10.4 mph - N/A   Partly Cloudy
8:50 AM 49 °F 43 °F 74% 30.22 in - WSW 9.2 mph - -  
8:50 AM 48.2 °F 44.6 °F 87% 30.15 in 6.2 mi SW 13.8 mph - N/A Rain Rain
9:20 AM 51.8 °F 48.2 °F 88% 30.21 in 6.2 mi SW 5.8 mph - N/A Rain Rain
9:50 AM 50.0 °F 44.6 °F 82% 30.21 in 6.2 mi West 15.0 mph - N/A Rain Rain
10:20 AM 50.0 °F 44.6 °F 82% 30.24 in 6.2 mi WNW 6.9 mph - N/A   Scattered Clouds
10:50 AM 51.8 °F 46.4 °F 82% 30.21 in 6.2 mi WNW 4.6 mph - N/A   Partly Cloudy
11:20 AM 51.8 °F 48.2 °F 88% 30.21 in 6.2 mi SSW 16.1 mph - N/A   Scattered Clouds
11:50 AM 55.4 °F 50.0 °F 82% 30.21 in 6.2 mi SSW 15.0 mph - N/A   Scattered Clouds
12:20 PM 55.4 °F 48.2 °F 77% 30.21 in 6.2 mi SW 18.4 mph - N/A   Scattered Clouds
12:50 PM 53.6 °F 50.0 °F 88% 30.21 in 6.2 mi SW 20.7 mph - N/A   Scattered Clouds
1:20 PM 53.6 °F 48.2 °F 82% 30.18 in 6.2 mi SSW 16.1 mph - N/A   Scattered Clouds
1:50 PM 53.6 °F 48.2 °F 82% 30.18 in 6.2 mi SSW 18.4 mph - N/A   Scattered Clouds
2:20 PM 53.6 °F 48.2 °F 82% 30.18 in 6.2 mi SSW 20.7 mph - N/A   Scattered Clouds
2:50 PM 53.6 °F 48.2 °F 82% 30.15 in 6.2 mi SW 18.4 mph - N/A   Scattered Clouds
3:20 PM 51.8 °F 46.4 °F 82% 30.15 in 6.2 mi SW 19.6 mph - N/A   Scattered Clouds
3:50 PM 51.8 °F 44.6 °F 76% 30.15 in 6.2 mi SW 21.9 mph - N/A   Scattered Clouds
4:20 PM 51.8 °F 44.6 °F 76% 30.15 in 6.2 mi SSW 19.6 mph - N/A   Partly Cloudy
4:50 PM 51.8 °F 44.6 °F 76% 30.12 in 6.2 mi SSW 20.7 mph - N/A   Partly Cloudy
5:20 PM 51.8 °F 44.6 °F 76% 30.12 in 6.2 mi SSW 19.6 mph - N/A   Partly Cloudy
5:50 PM 52 °F 43 °F 64% 30.11 in - SSW 23.0 mph - -  
5:50 PM 51.8 °F 42.8 °F 71% 30.09 in 6.2 mi SSW 21.9 mph - N/A   Partly Cloudy
6:20 PM 51.8 °F 42.8 °F 71% 30.09 in 6.2 mi SSW 21.9 mph - N/A   Partly Cloudy
8:50 PM 52 °F 45 °F 68% 30.01 in - South 25.3 mph - -  
11:50 PM 53 °F 49 °F 80% 29.86 in - South 31.1 mph - -